Platteville, WI

5:02 PM CST on December 14, 2017 (GMT -0600)
Platteville Municipal

Weather History for KPVB - April, 2014

Change the Weather History Date:

Friday, April 4, 2014

  Actual Average (KDBQ) Record (KDBQ)
Temperature  
Mean Temperature 36 °F -  
Max Temperature 37 °F 50 °F 83 °F (1929)
Min Temperature 34 °F 32 °F 13 °F (1995)
Degree Days  
Heating Degree Days 30    
Moisture  
Dew Point 30 °F    
Average Humidity 83    
Maximum Humidity 95    
Minimum Humidity 67    
Precipitation  
Precipitation 0.01 in - - ()
Sea Level Pressure  
Sea Level Pressure 29.69 in    
Wind  
Wind Speed 11 mph (WNW)    
Max Wind Speed 26 mph    
Max Gust Speed 32 mph    
Visibility 7 miles    
Events      
Averages and records for this station are not official NWS values.
T = Trace of Precipitation, MM = Missing Value Source: NWS Daily Summary

Daily Weather History Graph

Daily Weather History Graph

Search for Another Location

Airport or City:

Trip Planner

Search our weather history database for the weather conditions in past years. The results will help you decide how hot, cold, wet, or windy it might be!

Date:

Astronomy

Apr. 04, 2014 Rise Set
Actual Time 6:38 AM CDT 7:31 PM CDT
Civil Twilight 6:10 AM CDT 8:00 PM CDT
Nautical Twilight 5:36 AM CDT 8:34 PM CDT
Astronomical Twilight 5:00 AM CDT 9:09 PM CDT
Moon 9:51 AM CDT (4/4) No Moon Set
Length of Visible Light 13h 49m
Length of Day
12h 52m
Waxing Crescent, 25% of the Moon is Illuminated
Apr 4
Waxing Crescent
Apr 7
First Quarter
Apr 15
Full
Apr 22
Last Quarter
Apr 29
New

Hourly Weather History & Observations

Time (CDT) Temp. Windchill Dew Point Humidity Pressure Visibility Wind Dir Wind Speed Gust Speed Precip Events Conditions
12:15 AM 34.7 °F 28.1 °F 32.9 °F 93% 29.62 in 2.0 mi ENE 8.1 mph - N/A   Overcast
12:35 AM 34.7 °F 28.1 °F 33.1 °F 94% 29.62 in 1.8 mi ENE 8.1 mph - N/A   Overcast
12:55 AM 34.7 °F 28.8 °F 33.1 °F 94% 29.62 in 2.5 mi East 6.9 mph - N/A   Overcast
1:15 AM 34.7 °F 28.1 °F 33.1 °F 94% 29.58 in 1.8 mi ENE 8.1 mph - N/A   Overcast
1:35 AM 34.7 °F 26.9 °F 33.1 °F 94% 29.55 in 2.5 mi ENE 10.4 mph - N/A   Overcast
1:55 AM 34.9 °F 25.7 °F 33.3 °F 94% 29.54 in 2.5 mi East 13.8 mph - N/A   Overcast
2:15 AM 35.1 °F 26.9 °F 33.6 °F 94% 29.54 in 2.5 mi East 11.5 mph - N/A   Overcast
2:35 AM 35.6 °F 26.6 °F 34.0 °F 94% 29.51 in 2.0 mi East 13.8 mph - N/A   Overcast
2:55 AM 35.8 °F 27.3 °F 34.2 °F 94% 29.49 in 1.5 mi East 12.7 mph 17.3 mph N/A   Overcast
3:15 AM 36.0 °F 28.5 °F 34.3 °F 94% 29.48 in 1.8 mi East 10.4 mph - N/A   Overcast
3:35 AM 36.1 °F 33.5 °F 34.7 °F 94% 29.49 in 1.5 mi ESE 3.5 mph - N/A   Overcast
3:55 AM 36.5 °F - 35.1 °F 95% 29.48 in 1.5 mi Calm Calm - 0.01 in   Overcast
4:15 AM 36.0 °F - 34.5 °F 94% 29.48 in 1.2 mi Calm Calm - N/A   Overcast
4:35 AM 35.8 °F 33.0 °F 34.3 °F 94% 29.47 in 0.8 mi North 3.5 mph - N/A   Overcast
4:55 AM 35.8 °F 31.9 °F 34.3 °F 94% 29.46 in 1.2 mi North 4.6 mph - N/A   Overcast
5:15 AM 35.8 °F - 34.3 °F 94% 29.47 in 1.2 mi Calm Calm - N/A   Overcast
5:35 AM 35.8 °F 31.9 °F 34.3 °F 94% 29.48 in 1.5 mi NW 4.6 mph - N/A   Overcast
5:55 AM 36.0 °F 32.1 °F 34.7 °F 95% 29.48 in 1.8 mi WNW 4.6 mph - N/A   Overcast
6:15 AM 35.6 °F 29.9 °F 34.2 °F 94% 29.49 in 1.8 mi WNW 6.9 mph - N/A   Overcast
6:35 AM 35.2 °F 28.1 °F 33.8 °F 94% 29.49 in 2.5 mi WNW 9.2 mph - N/A   Overcast
6:55 AM 34.7 °F 27.5 °F 33.1 °F 94% 29.50 in 3.0 mi WNW 9.2 mph - N/A   Overcast
7:15 AM 34.3 °F 28.4 °F 32.9 °F 94% 29.51 in 2.0 mi WNW 6.9 mph - N/A   Overcast
7:35 AM 34.3 °F 26.5 °F 32.9 °F 94% 29.52 in 5.0 mi WNW 10.4 mph - N/A   Overcast
7:55 AM 34.2 °F 26.8 °F 32.9 °F 95% 29.52 in 10.0 mi WNW 9.2 mph - N/A   Overcast
8:15 AM 34.3 °F 26.5 °F 32.9 °F 94% 29.53 in 10.0 mi West 10.4 mph 16.1 mph N/A   Overcast
8:35 AM 34.3 °F 25.9 °F 32.9 °F 94% 29.54 in 10.0 mi West 11.5 mph - N/A   Overcast
8:55 AM 34.9 °F 25.7 °F 33.1 °F 93% 29.54 in 10.0 mi WNW 13.8 mph 19.6 mph N/A   Overcast
9:15 AM 34.9 °F 25.7 °F 32.4 °F 91% 29.54 in 10.0 mi WNW 13.8 mph 18.4 mph N/A   Overcast
9:35 AM 34.7 °F 25.5 °F 32.2 °F 91% 29.55 in 10.0 mi West 13.8 mph 23.0 mph N/A   Overcast
9:55 AM 34.7 °F 24.0 °F 32.0 °F 90% 29.56 in 10.0 mi WNW 18.4 mph - N/A   Overcast
10:15 AM 35.1 °F 25.2 °F 32.0 °F 89% 29.57 in 10.0 mi WNW 16.1 mph 23.0 mph N/A   Overcast
10:35 AM 35.1 °F 23.5 °F 32.0 °F 89% 29.58 in 10.0 mi WNW 21.9 mph 26.5 mph N/A   Overcast
11:15 AM 35.4 °F 24.9 °F 31.3 °F 85% 29.60 in 10.0 mi West 18.4 mph 24.2 mph N/A   Overcast
11:35 AM 35.2 °F 25.4 °F 30.9 °F 84% 29.61 in 10.0 mi West 16.1 mph 24.2 mph N/A   Overcast
11:55 AM 35.1 °F 24.1 °F 30.2 °F 82% 29.62 in 10.0 mi West 19.6 mph 27.6 mph N/A   Overcast
12:15 PM 34.7 °F 23.1 °F 29.7 °F 82% 29.64 in 10.0 mi West 21.9 mph 28.8 mph N/A   Overcast
12:55 PM 34.3 °F 23.9 °F 28.9 °F 81% 29.66 in 10.0 mi WNW 17.3 mph 24.2 mph N/A   Overcast
1:15 PM 34.7 °F 24.0 °F 28.6 °F 78% 29.67 in 10.0 mi WNW 18.4 mph 25.3 mph N/A   Overcast
1:35 PM 36.0 °F 25.0 °F 28.6 °F 75% 29.67 in 10.0 mi WNW 20.7 mph 27.6 mph N/A   Overcast
1:55 PM 36.1 °F 24.7 °F 27.7 °F 71% 29.68 in 10.0 mi WNW 23.0 mph 29.9 mph N/A   Overcast
2:15 PM 35.8 °F 25.1 °F 27.1 °F 71% 29.70 in 10.0 mi WNW 19.6 mph 27.6 mph N/A   Overcast
2:35 PM 35.6 °F 23.2 °F 27.1 °F 71% 29.71 in 10.0 mi NW 26.5 mph 32.2 mph N/A   Overcast
2:55 PM 36.5 °F 25.7 °F 27.7 °F 70% 29.72 in 10.0 mi WNW 20.7 mph 28.8 mph N/A   Overcast
3:15 PM 36.7 °F 25.7 °F 27.7 °F 70% 29.74 in 10.0 mi WNW 21.9 mph 26.5 mph N/A   Overcast
3:35 PM 36.3 °F 26.1 °F 27.0 °F 69% 29.75 in 10.0 mi WNW 18.4 mph 32.2 mph N/A   Overcast
3:55 PM 36.0 °F 25.0 °F 27.0 °F 70% 29.77 in 10.0 mi WNW 20.7 mph 28.8 mph N/A   Overcast
4:15 PM 35.6 °F 25.2 °F 27.3 °F 72% 29.78 in 10.0 mi WNW 18.4 mph 26.5 mph N/A   Overcast
4:35 PM 36.0 °F 25.6 °F 27.9 °F 72% 29.79 in 10.0 mi WNW 18.4 mph 27.6 mph N/A   Overcast
4:55 PM 36.7 °F 27.6 °F 28.2 °F 71% 29.80 in 10.0 mi WNW 15.0 mph 28.8 mph N/A   Overcast
5:15 PM 37.4 °F 25.9 °F 27.9 °F 68% 29.81 in 10.0 mi NW 25.3 mph 32.2 mph N/A   Overcast
5:35 PM 37.4 °F 27.8 °F 27.3 °F 67% 29.83 in 10.0 mi NW 17.3 mph 29.9 mph N/A   Overcast
5:55 PM 37.4 °F 27.2 °F 27.3 °F 67% 29.85 in 10.0 mi NW 19.6 mph 29.9 mph N/A   Overcast
6:15 PM 36.7 °F 25.4 °F 27.3 °F 69% 29.87 in 10.0 mi WNW 23.0 mph 27.6 mph N/A   Overcast
6:35 PM 36.5 °F 26.7 °F 27.3 °F 69% 29.89 in 10.0 mi NW 17.3 mph 26.5 mph N/A   Overcast
6:55 PM 36.5 °F 27.0 °F 27.7 °F 70% 29.90 in 10.0 mi WNW 16.1 mph 21.9 mph N/A   Overcast
7:15 PM 36.0 °F 27.1 °F 27.5 °F 71% 29.92 in 10.0 mi WNW 13.8 mph - N/A   Overcast
7:35 PM 35.8 °F 26.9 °F 27.9 °F 73% 29.93 in 10.0 mi WNW 13.8 mph - N/A   Overcast
7:55 PM 35.8 °F 27.8 °F 27.5 °F 72% 29.95 in 10.0 mi WNW 11.5 mph 17.3 mph N/A   Overcast
8:15 PM 35.8 °F 27.8 °F 26.6 °F 69% 29.96 in 10.0 mi WNW 11.5 mph - N/A   Overcast
8:35 PM 35.6 °F 28.6 °F 26.8 °F 70% 29.98 in 10.0 mi WNW 9.2 mph - N/A   Overcast
8:55 PM 35.6 °F 28.0 °F 26.6 °F 70% 29.99 in 10.0 mi WNW 10.4 mph - N/A   Overcast
9:15 PM 35.6 °F 28.6 °F 26.6 °F 70% 30.00 in 10.0 mi WNW 9.2 mph - N/A   Overcast
9:55 PM 35.2 °F 28.8 °F 27.0 °F 72% 30.01 in 10.0 mi West 8.1 mph - N/A   Overcast
10:15 PM 34.9 °F 26.6 °F 27.5 °F 74% 30.03 in 10.0 mi West 11.5 mph - N/A   Overcast
10:35 PM 34.7 °F 27.5 °F 27.5 °F 75% 30.03 in 10.0 mi West 9.2 mph - N/A   Overcast
10:55 PM 34.7 °F 28.1 °F 27.3 °F 74% 30.04 in 10.0 mi West 8.1 mph - N/A   Overcast
11:15 PM 34.7 °F 28.8 °F 27.5 °F 75% 30.04 in 10.0 mi West 6.9 mph - N/A   Overcast
11:55 PM 34.5 °F 28.6 °F 27.9 °F 77% 30.05 in 10.0 mi West 6.9 mph - N/A   Overcast